| time (UTC) | temp F | wind direction | speed MPH | gust MPH | rain 1hr in | rain 24hr in | rain mn in | humidity % | barometer mb |
| 20260503173038 | 62 | 126 | 2.0 | 7.0 | 0.00 | 0.00 | 0.00 | 53 | 1019.0 |
| 20260503172516 | 62 | 254 | 1.0 | 13.0 | 0.00 | 0.00 | 0.00 | 54 | 1019.0 |
| 20260503172015 | 61 | 101 | 4.0 | 13.0 | 0.00 | 0.00 | 0.00 | 55 | 1019.1 |
| 20260503171531 | 61 | 153 | 2.0 | 11.0 | 0.00 | 0.00 | 0.00 | 49 | 1019.4 |
| 20260503171017 | 61 | 175 | 3.0 | 11.0 | 0.00 | 0.00 | 0.00 | 53 | 1019.3 |
| 20260503170515 | 61 | 176 | 4.0 | 16.0 | 0.00 | 0.00 | 0.00 | 53 | 1019.6 |
| 20260503151014 | 58 | 55 | 2.0 | 9.0 | 0.00 | 0.00 | 0.00 | 58 | 1020.3 |
| 20260503150514 | 58 | 267 | 1.0 | 6.0 | 0.00 | 0.00 | 0.00 | 62 | 1020.4 |
| 20260503131018 | 49 | 144 | 2.0 | 6.0 | 0.00 | 0.00 | 0.00 | 71 | 1020.6 |
| 20260503130518 | 49 | 0 | 0.0 | 4.0 | 0.00 | 0.00 | 0.00 | 75 | 1020.6 |
| 20260503110515 | 35 | 0 | 0.0 | 0.0 | 0.00 | 0.00 | 0.00 | 91 | 1020.1 |
| 20260503081531 | 36 | 0 | 0.0 | 0.0 | 0.00 | 0.00 | 0.00 | 88 | 1019.8 |
| 20260503081017 | 36 | 0 | 0.0 | 0.0 | 0.00 | 0.00 | 0.00 | 88 | 1019.8 |
| 20260503080514 | 36 | 0 | 0.0 | 0.0 | 0.00 | 0.00 | 0.00 | 88 | 1019.8 |
| 20260503072515 | 36 | 0 | 0.0 | 0.0 | 0.00 | 0.00 | 0.00 | 87 | 1019.9 |
| 20260503072012 | 36 | 0 | 0.0 | 0.0 | 0.00 | 0.00 | 0.00 | 87 | 1019.9 |
| 20260503071536 | 36 | 0 | 0.0 | 0.0 | 0.00 | 0.00 | 0.00 | 87 | 1020.0 |
| 20260503071016 | 36 | 0 | 0.0 | 0.0 | 0.00 | 0.00 | 0.00 | 87 | 1019.9 |
| 20260503070513 | 36 | 0 | 0.0 | 0.0 | 0.00 | 0.00 | 0.00 | 86 | 1019.9 |
| 20260503055014 | 37 | 0 | 0.0 | 0.0 | 0.00 | 0.00 | 0.00 | 83 | 1020.4 |
| 20260503054535 | 38 | 0 | 0.0 | 0.0 | 0.00 | 0.00 | 0.00 | 83 | 1020.4 |
| 20260503054015 | 38 | 0 | 0.0 | 0.0 | 0.00 | 0.00 | 0.00 | 83 | 1020.4 |
| 20260503053513 | 38 | 0 | 0.0 | 0.0 | 0.00 | 0.00 | 0.00 | 83 | 1020.4 |
| 20260503053033 | 38 | 0 | 0.0 | 0.0 | 0.00 | 0.00 | 0.00 | 82 | 1020.4 |
| 20260503052514 | 38 | 0 | 0.0 | 0.0 | 0.00 | 0.00 | 0.00 | 82 | 1020.3 |
| 20260503052017 | 38 | 0 | 0.0 | 0.0 | 0.00 | 0.00 | 0.00 | 82 | 1020.4 |
| 20260503051535 | 38 | 0 | 0.0 | 0.0 | 0.00 | 0.00 | 0.00 | 81 | 1020.4 |
| 20260503051012 | 38 | 0 | 0.0 | 0.0 | 0.00 | 0.00 | 0.00 | 81 | 1020.4 |
| 20260503050514 | 38 | 0 | 0.0 | 0.0 | 0.00 | 0.00 | 0.00 | 81 | 1020.4 |
| 20260503050037 | 38 | 0 | 0.0 | 0.0 | 0.00 | 0.00 | 0.00 | 81 | 1020.4 |
| 20260503045514 | 39 | 0 | 0.0 | 0.0 | 0.00 | 0.00 | 0.00 | 80 | 1020.4 |
| 20260503045018 | 39 | 0 | 0.0 | 0.0 | 0.00 | 0.00 | 0.00 | 80 | 1020.4 |
| 20260503044532 | 39 | 0 | 0.0 | 0.0 | 0.00 | 0.00 | 0.00 | 80 | 1020.3 |
| 20260503044013 | 39 | 0 | 0.0 | 0.0 | 0.00 | 0.00 | 0.00 | 79 | 1020.3 |
| 20260503043513 | 39 | 0 | 0.0 | 0.0 | 0.00 | 0.00 | 0.00 | 79 | 1020.4 |
| 20260503043031 | 39 | 0 | 0.0 | 0.0 | 0.00 | 0.00 | 0.00 | 78 | 1020.4 |
| 20260503042514 | 39 | 0 | 0.0 | 0.0 | 0.00 | 0.00 | 0.00 | 78 | 1020.3 |
| 20260503042014 | 39 | 0 | 0.0 | 0.0 | 0.00 | 0.00 | 0.00 | 77 | 1020.2 |
| 20260503041537 | 40 | 0 | 0.0 | 0.0 | 0.00 | 0.00 | 0.00 | 76 | 1020.2 |
| 20260503041013 | 40 | 0 | 0.0 | 0.0 | 0.00 | 0.00 | 0.00 | 76 | 1020.3 |
| 20260503040513 | 40 | 0 | 0.0 | 0.0 | 0.00 | 0.00 | 0.00 | 74 | 1020.3 |
| 20260503040029 | 40 | 0 | 0.0 | 0.0 | 0.00 | 0.00 | 0.00 | 74 | 1020.3 |
| 20260503035513 | 40 | 0 | 0.0 | 0.0 | 0.00 | 0.00 | 0.00 | 73 | 1020.3 |
| 20260503035013 | 40 | 0 | 0.0 | 0.0 | 0.00 | 0.00 | 0.00 | 73 | 1020.2 |
| 20260503034531 | 40 | 0 | 0.0 | 0.0 | 0.00 | 0.00 | 0.00 | 72 | 1020.2 |
| 20260503034015 | 41 | 0 | 0.0 | 0.0 | 0.00 | 0.00 | 0.00 | 71 | 1020.3 |
| 20260503033515 | 41 | 0 | 0.0 | 0.0 | 0.00 | 0.00 | 0.00 | 71 | 1020.4 |
| 20260503033033 | 41 | 0 | 0.0 | 0.0 | 0.00 | 0.00 | 0.00 | 70 | 1020.3 |
| 20260503032518 | 41 | 0 | 0.0 | 0.0 | 0.00 | 0.00 | 0.00 | 70 | 1020.3 |
| 20260503032015 | 42 | 0 | 0.0 | 0.0 | 0.00 | 0.00 | 0.00 | 70 | 1020.3 |
| 20260503031531 | 42 | 0 | 0.0 | 0.0 | 0.00 | 0.00 | 0.00 | 70 | 1020.2 |
| 20260503031014 | 42 | 0 | 0.0 | 0.0 | 0.00 | 0.00 | 0.00 | 69 | 1020.2 |
| 20260503030513 | 42 | 0 | 0.0 | 0.0 | 0.00 | 0.00 | 0.00 | 69 | 1020.2 |
| 20260503030044 | 43 | 0 | 0.0 | 0.0 | 0.00 | 0.00 | 0.00 | 69 | 1020.3 |
| 20260503025514 | 43 | 0 | 0.0 | 0.0 | 0.00 | 0.00 | 0.00 | 68 | 1020.3 |
| 20260503025015 | 43 | 0 | 0.0 | 0.0 | 0.00 | 0.00 | 0.00 | 67 | 1020.2 |
| 20260503024530 | 44 | 0 | 0.0 | 0.0 | 0.00 | 0.00 | 0.00 | 67 | 1020.2 |
| 20260503024014 | 44 | 0 | 0.0 | 0.0 | 0.00 | 0.00 | 0.00 | 67 | 1020.1 |
| 20260503023513 | 44 | 0 | 0.0 | 0.0 | 0.00 | 0.00 | 0.00 | 66 | 1020.1 |
| 20260503023031 | 44 | 0 | 0.0 | 0.0 | 0.00 | 0.00 | 0.00 | 65 | 1020.0 |
| 20260503022513 | 45 | 0 | 0.0 | 0.0 | 0.00 | 0.00 | 0.00 | 65 | 1020.0 |
| 20260503022016 | 45 | 0 | 0.0 | 0.0 | 0.00 | 0.00 | 0.00 | 63 | 1019.9 |
| 20260503021529 | 46 | 0 | 0.0 | 0.0 | 0.00 | 0.00 | 0.00 | 63 | 1019.9 |
| 20260503021013 | 46 | 0 | 0.0 | 0.0 | 0.00 | 0.00 | 0.00 | 62 | 1019.8 |
| 20260503020515 | 47 | 0 | 0.0 | 0.0 | 0.00 | 0.00 | 0.00 | 61 | 1019.9 |
| 20260503020030 | 47 | 0 | 0.0 | 0.0 | 0.00 | 0.00 | 0.00 | 61 | 1019.8 |
| 20260503015514 | 48 | 0 | 0.0 | 0.0 | 0.00 | 0.00 | 0.00 | 60 | 1019.8 |
| 20260503015014 | 48 | 0 | 0.0 | 0.0 | 0.00 | 0.00 | 0.00 | 59 | 1019.7 |
| 20260503014530 | 48 | 0 | 0.0 | 0.0 | 0.00 | 0.00 | 0.00 | 58 | 1019.6 |
| 20260503014015 | 49 | 0 | 0.0 | 0.0 | 0.00 | 0.00 | 0.00 | 57 | 1019.7 |
| 20260503013515 | 49 | 0 | 0.0 | 0.0 | 0.00 | 0.00 | 0.00 | 54 | 1019.6 |
| 20260503013036 | 49 | 0 | 0.0 | 0.0 | 0.00 | 0.00 | 0.00 | 52 | 1019.6 |
| 20260503012515 | 49 | 0 | 0.0 | 0.0 | 0.00 | 0.00 | 0.00 | 51 | 1019.5 |
| 20260503012015 | 50 | 0 | 0.0 | 1.0 | 0.00 | 0.00 | 0.00 | 50 | 1019.4 |
| 20260503011530 | 50 | 0 | 0.0 | 1.0 | 0.00 | 0.00 | 0.00 | 50 | 1019.4 |
| 20260503011014 | 50 | 0 | 0.0 | 1.0 | 0.00 | 0.00 | 0.00 | 49 | 1019.3 |
| 20260503010511 | 50 | 0 | 0.0 | 1.0 | 0.00 | 0.00 | 0.00 | 48 | 1019.3 |
| 20260503010036 | 51 | 0 | 0.0 | 0.0 | 0.00 | 0.00 | 0.00 | 49 | 1019.2 |
| 20260503005515 | 51 | 0 | 0.0 | 1.0 | 0.00 | 0.00 | 0.00 | 48 | 1019.2 |
| 20260503005016 | 51 | 0 | 0.0 | 1.0 | 0.00 | 0.00 | 0.00 | 48 | 1019.2 |
| 20260503004531 | 52 | 251 | 0.0 | 2.0 | 0.00 | 0.00 | 0.00 | 48 | 1019.1 |
| 20260503004016 | 52 | 0 | 0.0 | 2.0 | 0.00 | 0.00 | 0.00 | 49 | 1019.1 |
| 20260503003515 | 52 | 0 | 0.0 | 3.0 | 0.00 | 0.00 | 0.00 | 48 | 1019.1 |
| 20260503003029 | 53 | 0 | 0.0 | 3.0 | 0.00 | 0.00 | 0.00 | 47 | 1019.0 |
| 20260503002515 | 53 | 249 | 0.0 | 2.0 | 0.00 | 0.00 | 0.00 | 47 | 1018.9 |
| 20260503002015 | 53 | 0 | 0.0 | 2.0 | 0.00 | 0.00 | 0.00 | 47 | 1018.9 |
| 20260503001541 | 53 | 0 | 0.0 | 4.0 | 0.00 | 0.00 | 0.00 | 47 | 1018.9 |
| 20260503001015 | 53 | 248 | 0.0 | 4.0 | 0.00 | 0.00 | 0.00 | 45 | 1018.8 |
| 20260503000515 | 53 | 249 | 2.0 | 4.0 | 0.00 | 0.00 | 0.00 | 44 | 1018.8 |
| 20260503000030 | 54 | 225 | 1.0 | 9.0 | 0.00 | 0.00 | 0.00 | 44 | 1018.8 |
| 20260502235514 | 54 | 265 | 3.0 | 9.0 | 0.00 | 0.00 | 0.00 | 44 | 1018.7 |
| 20260502235015 | 54 | 255 | 1.0 | 7.0 | 0.00 | 0.00 | 0.00 | 44 | 1018.6 |
| 20260502234537 | 54 | 255 | 2.0 | 6.0 | 0.00 | 0.00 | 0.00 | 43 | 1018.7 |
| 20260502234019 | 55 | 263 | 1.0 | 4.0 | 0.00 | 0.00 | 0.00 | 44 | 1018.7 |
| 20260502233518 | 55 | 245 | 1.0 | 8.0 | 0.00 | 0.00 | 0.00 | 43 | 1018.7 |
| 20260502233030 | 56 | 242 | 1.0 | 8.0 | 0.00 | 0.00 | 0.00 | 43 | 1018.7 |
| 20260502232517 | 56 | 246 | 3.0 | 8.0 | 0.00 | 0.00 | 0.00 | 41 | 1018.7 |
| 20260502232012 | 56 | 221 | 2.0 | 7.0 | 0.00 | 0.00 | 0.00 | 41 | 1018.6 |
| 20260502231530 | 56 | 170 | 2.0 | 7.0 | 0.00 | 0.00 | 0.00 | 40 | 1018.6 |
| 20260502231015 | 56 | 234 | 2.0 | 6.0 | 0.00 | 0.00 | 0.00 | 42 | 1018.6 |
| 20260502230515 | 56 | 221 | 2.0 | 6.0 | 0.00 | 0.00 | 0.00 | 43 | 1018.7 |
| 20260502230034 | 56 | 240 | 2.0 | 7.0 | 0.00 | 0.00 | 0.00 | 43 | 1018.7 |
| 20260502225514 | 56 | 209 | 3.0 | 8.0 | 0.00 | 0.00 | 0.00 | 42 | 1018.7 |
| 20260502225020 | 56 | 232 | 2.0 | 9.0 | 0.00 | 0.00 | 0.00 | 42 | 1018.6 |
| 20260502224532 | 56 | 223 | 3.0 | 10.0 | 0.00 | 0.00 | 0.00 | 43 | 1018.6 |
| 20260502224015 | 56 | 134 | 4.0 | 11.0 | 0.00 | 0.00 | 0.00 | 42 | 1018.5 |
| 20260502223515 | 56 | 254 | 4.0 | 11.0 | 0.00 | 0.00 | 0.00 | 40 | 1018.6 |
| 20260502223032 | 57 | 174 | 3.0 | 9.0 | 0.00 | 0.00 | 0.00 | 42 | 1018.6 |
| 20260502222514 | 57 | 254 | 1.0 | 8.0 | 0.00 | 0.00 | 0.00 | 42 | 1018.5 |
| 20260502222014 | 57 | 210 | 3.0 | 11.0 | 0.00 | 0.00 | 0.00 | 42 | 1018.5 |
| 20260502221532 | 57 | 156 | 5.0 | 11.0 | 0.00 | 0.00 | 0.00 | 42 | 1018.5 |
| 20260502221015 | 58 | 284 | 3.0 | 8.0 | 0.00 | 0.00 | 0.00 | 43 | 1018.3 |
| 20260502220515 | 58 | 240 | 3.0 | 9.0 | 0.00 | 0.00 | 0.00 | 43 | 1018.3 |
| 20260502220030 | 58 | 205 | 3.0 | 10.0 | 0.00 | 0.00 | 0.00 | 43 | 1018.3 |
| 20260502215516 | 58 | 226 | 3.0 | 10.0 | 0.00 | 0.00 | 0.00 | 46 | 1018.2 |
| 20260502215016 | 58 | 254 | 3.0 | 8.0 | 0.00 | 0.00 | 0.00 | 44 | 1018.3 |
| 20260502214531 | 58 | 236 | 2.0 | 8.0 | 0.00 | 0.00 | 0.00 | 45 | 1018.3 |
| 20260502214015 | 57 | 229 | 2.0 | 8.0 | 0.00 | 0.00 | 0.00 | 45 | 1018.2 |
| 20260502213515 | 57 | 260 | 4.0 | 8.0 | 0.00 | 0.00 | 0.00 | 44 | 1018.2 |
| 20260502213030 | 58 | 219 | 3.0 | 12.0 | 0.00 | 0.00 | 0.00 | 44 | 1018.2 |
| 20260502212518 | 58 | 243 | 2.0 | 14.0 | 0.00 | 0.00 | 0.00 | 48 | 1018.3 |
| 20260502212014 | 58 | 201 | 5.0 | 14.0 | 0.00 | 0.00 | 0.00 | 46 | 1018.2 |
| 20260502211530 | 58 | 279 | 2.0 | 9.0 | 0.00 | 0.00 | 0.00 | 50 | 1018.2 |
| 20260502211018 | 58 | 231 | 3.0 | 10.0 | 0.00 | 0.00 | 0.00 | 47 | 1018.2 |
| 20260502210514 | 57 | 160 | 3.0 | 11.0 | 0.00 | 0.00 | 0.00 | 48 | 1018.3 |
| 20260502210031 | 57 | 191 | 6.0 | 11.0 | 0.00 | 0.00 | 0.00 | 47 | 1018.3 |
| 20260502205517 | 57 | 143 | 3.0 | 7.0 | 0.00 | 0.00 | 0.00 | 51 | 1018.4 |
| 20260502205016 | 57 | 0 | 1.0 | 10.0 | 0.00 | 0.00 | 0.00 | 48 | 1018.3 |
| 20260502204530 | 57 | 221 | 3.0 | 10.0 | 0.00 | 0.00 | 0.00 | 51 | 1018.4 |
| 20260502204016 | 56 | 141 | 3.0 | 6.0 | 0.00 | 0.00 | 0.00 | 52 | 1018.4 |
| 20260502203515 | 55 | 138 | 2.0 | 6.0 | 0.00 | 0.00 | 0.00 | 54 | 1018.6 |
| 20260502203029 | 55 | 155 | 2.0 | 6.0 | 0.00 | 0.00 | 0.00 | 53 | 1018.6 |
| 20260502202515 | 55 | 255 | 2.0 | 6.0 | 0.00 | 0.00 | 0.00 | 53 | 1018.6 |
| 20260502202015 | 55 | 247 | 2.0 | 5.0 | 0.00 | 0.00 | 0.00 | 54 | 1018.7 |
| 20260502201530 | 55 | 261 | 0.0 | 4.0 | 0.00 | 0.00 | 0.00 | 56 | 1018.7 |
| 20260502201015 | 55 | 0 | 1.0 | 7.0 | 0.00 | 0.00 | 0.00 | 54 | 1018.7 |
| 20260502200518 | 55 | 214 | 2.0 | 7.0 | 0.00 | 0.00 | 0.00 | 54 | 1018.8 |
| 20260502200032 | 54 | 192 | 0.0 | 5.0 | 0.00 | 0.00 | 0.00 | 55 | 1018.8 |
| 20260502195515 | 54 | 247 | 1.0 | 5.0 | 0.00 | 0.00 | 0.00 | 54 | 1018.8 |
| 20260502195014 | 55 | 243 | 2.0 | 7.0 | 0.00 | 0.00 | 0.00 | 55 | 1018.9 |
| 20260502194533 | 55 | 259 | 2.0 | 7.0 | 0.00 | 0.00 | 0.00 | 53 | 1018.8 |
| 20260502194014 | 55 | 261 | 4.0 | 12.0 | 0.00 | 0.00 | 0.00 | 54 | 1018.8 |
| 20260502193514 | 55 | 17 | 2.0 | 12.0 | 0.00 | 0.00 | 0.00 | 56 | 1018.9 |
| 20260502193030 | 54 | 261 | 1.0 | 5.0 | 0.00 | 0.00 | 0.00 | 59 | 1018.9 |
| 20260502192516 | 54 | 337 | 1.0 | 3.0 | 0.00 | 0.00 | 0.00 | 57 | 1018.9 |
| 20260502192016 | 54 | 264 | 1.0 | 3.0 | 0.00 | 0.00 | 0.00 | 57 | 1019.0 |
| 20260502191529 | 54 | 0 | 0.0 | 4.0 | 0.00 | 0.00 | 0.00 | 57 | 1019.0 |
| 20260502191015 | 54 | 0 | 0.0 | 6.0 | 0.00 | 0.00 | 0.00 | 56 | 1019.1 |
| 20260502190515 | 54 | 232 | 2.0 | 7.0 | 0.00 | 0.00 | 0.00 | 56 | 1019.1 |
| 20260502190037 | 54 | 269 | 2.0 | 7.0 | 0.00 | 0.00 | 0.00 | 57 | 1019.1 |
| 20260502185515 | 54 | 294 | 1.0 | 6.0 | 0.00 | 0.00 | 0.00 | 57 | 1019.1 |
| 20260502185012 | 55 | 255 | 2.0 | 6.0 | 0.00 | 0.00 | 0.00 | 56 | 1019.0 |
| 20260502184537 | 55 | 254 | 1.0 | 8.0 | 0.00 | 0.00 | 0.00 | 61 | 1019.1 |
| 20260502184015 | 55 | 325 | 3.0 | 8.0 | 0.00 | 0.00 | 0.00 | 59 | 1019.1 |
| 20260502183516 | 55 | 325 | 4.0 | 8.0 | 0.00 | 0.00 | 0.00 | 61 | 1019.1 |
| 20260502183043 | 55 | 304 | 3.0 | 11.0 | 0.00 | 0.00 | 0.00 | 64 | 1019.1 |
| 20260502182516 | 55 | 312 | 1.0 | 11.0 | 0.00 | 0.00 | 0.00 | 58 | 1019.2 |
| 20260502182015 | 55 | 308 | 4.0 | 11.0 | 0.00 | 0.00 | 0.00 | 60 | 1019.3 |
| 20260502181539 | 55 | 257 | 2.0 | 6.0 | 0.00 | 0.00 | 0.00 | 59 | 1019.3 |
| 20260502181015 | 55 | 244 | 1.0 | 6.0 | 0.00 | 0.00 | 0.00 | 60 | 1019.3 |
| 20260502180515 | 56 | 348 | 2.0 | 6.0 | 0.00 | 0.00 | 0.00 | 61 | 1019.3 |